Flag for Belgium Weather past 2 weeks in Mons, Belgium

Now
64 °F

Broken clouds.


Feels Like: 64 °F
Forecast: 44 / 68 °F
Wind: 7 mph from South

Location: Chievres


UV Index: 0 (Low)

Visibility: N/A


Pressure: 29.62 "Hg

Humidity: 52%

Dew point: 46 °F

Location of MonsLocation

Historic Weather in Mons

°F

Mons temperature yesterday

Maximum temperature yesterday: 59 °F (at 6:25 PM)
Minimum temperature yesterday: 37 °F (at 6:25 AM)
Average temperature yesterday: 49 °F

Past Weeks' High & Low Weather Summary

 TemperatureHumidityPressure
High70 °F (Apr 7, 2:25 PM)100% (Apr 9, 2:25 AM)30.42 "Hg (Apr 9, 2:25 AM)
Low32 °F (Apr 15, 5:25 AM)31% (Apr 16, 7:25 PM)29.62 "Hg (Apr 20, 3:25 PM)
Average50 °F74%30.11 "Hg
* Reported Apr 5 6:25 PM — Apr 20 6:25 PM, Mons, Weather by CustomWeather, © 2014

Note: Actual official high and low records may vary slightly from our data, if they occured in-between our weather recording intervals... More about our weather records

Advertising

Historic Weather Conditions — Data for Previous 24 hours

 ConditionsComfort  
Time TempWeatherWind HumidityBarometerVisibility
6:25 PM
Apr 20
64 °FBroken clouds.7 mph52%29.62 "HgN/A
5:25 PM64 °FPassing clouds.7 mph56%29.62 "HgN/A
4:25 PM63 °FPartly sunny.13 mph59%29.62 "HgN/A
3:25 PM64 °FScattered clouds.8 mph56%29.62 "HgN/A
2:25 PM63 °FBroken clouds.9 mph59%29.65 "HgN/A
1:25 PM63 °FScattered clouds.8 mph59%29.65 "HgN/A
12:25 PM64 °FPassing clouds.14 mph60%29.65 "HgN/A
11:25 AM59 °FPassing clouds.16 mph72%29.68 "HgN/A
10:25 AM57 °FScattered clouds.13 mph72%29.68 "HgN/A
9:25 AM54 °FPassing clouds.14 mph82%29.71 "HgN/A
8:25 AM54 °FScattered clouds.9 mph77%29.71 "Hg6 mi
7:25 AM52 °FPassing clouds.14 mph82%29.71 "Hg6 mi
6:25 AM50 °FPassing clouds.10 mph88%29.74 "Hg6 mi
5:25 AM50 °FPassing clouds.12 mph82%29.74 "HgN/A
4:25 AM50 °FPassing clouds.8 mph82%29.77 "HgN/A
3:25 AM52 °FPassing clouds.9 mph77%29.77 "HgN/A
2:25 AM54 °FPassing clouds.12 mph72%29.80 "HgN/A
1:25 AM54 °FPassing clouds.14 mph67%29.80 "HgN/A
12:25 AM52 °FCool.8 mph72%29.83 "HgN/A
11:25 PM
Apr 19
54 °FPassing clouds.10 mph63%29.86 "HgN/A
10:25 PM52 °FPassing clouds.8 mph67%29.86 "HgN/A
9:25 PM50 °FCool.7 mph67%29.89 "HgN/A
8:25 PM54 °FCool.8 mph58%29.89 "HgN/A
7:25 PM57 °FRefreshingly cool.12 mph51%29.89 "HgN/A
Weather by CustomWeather, © 2014

See weather overview